Time,TemperatureF,DewpointF,PressureIn,WindDirection,WindDirectionDegrees,WindSpeedMPH,WindSpeedGustMPH,Humidity,HourlyPrecipIn,Conditions,Clouds,dailyrainin,SoftwareType,DateUTC
2013-10-21 00:01:00,44.6,36.1,29.98,SE,129,5.0,6.0,72,0.00,,,0.00,Wunderground v.1.15,2013-10-21 04:01:00,
2013-10-21 00:02:00,44.5,36.0,29.98,SE,130,5.0,6.0,72,0.00,,,0.00,Wunderground v.1.15,2013-10-21 04:02:00,
2013-10-21 00:03:00,44.5,36.0,29.98,SE,127,6.0,6.0,72,0.00,,,0.00,Wunderground v.1.15,2013-10-21 04:03:00,
2013-10-21 00:04:00,44.6,36.1,29.98,SE,125,6.0,6.0,72,0.00,,,0.00,Wunderground v.1.15,2013-10-21 04:04:00,
2013-10-21 00:10:00,44.5,36.0,29.98,SE,127,5.0,5.0,72,0.00,,,0.00,Wunderground v.1.15,2013-10-21 04:10:00,
2013-10-21 00:14:00,44.3,36.2,29.98,SE,136,7.0,7.0,73,0.00,,,0.00,Wunderground v.1.15,2013-10-21 04:14:00,
2013-10-21 00:19:00,44.1,36.0,29.98,SE,130,5.0,7.0,73,0.00,,,0.00,Wunderground v.1.15,2013-10-21 04:19:00,
2013-10-21 00:25:00,43.9,36.1,29.98,SE,136,4.0,6.0,74,0.00,,,0.00,Wunderground v.1.15,2013-10-21 04:25:00,
2013-10-21 00:30:00,43.8,36.0,29.98,SE,136,4.0,5.0,74,0.00,,,0.00,Wunderground v.1.15,2013-10-21 04:30:00,
2013-10-21 00:36:00,43.9,36.1,29.98,SE,130,7.0,8.0,74,0.00,,,0.00,Wunderground v.1.15,2013-10-21 04:36:00,
2013-10-21 00:41:00,43.9,36.1,29.98,SE,131,4.0,6.0,74,0.00,,,0.00,Wunderground v.1.15,2013-10-21 04:41:00,
2013-10-21 00:47:00,43.6,36.2,29.98,SE,136,5.0,9.0,75,0.00,,,0.00,Wunderground v.1.15,2013-10-21 04:47:00,
2013-10-21 00:53:00,43.5,36.1,29.98,SE,134,6.0,6.0,75,0.00,,,0.00,Wunderground v.1.15,2013-10-21 04:53:00,
2013-10-21 00:58:00,43.3,36.2,29.98,SE,134,6.0,9.0,76,0.00,,,0.00,Wunderground v.1.15,2013-10-21 04:58:00,
2013-10-21 01:03:00,43.2,36.1,29.98,SE,129,5.0,7.0,76,0.00,,,0.00,Wunderground v.1.15,2013-10-21 05:03:00,
2013-10-21 01:10:00,43.2,36.1,29.98,SE,129,5.0,5.0,76,0.00,,,0.00,Wunderground v.1.15,2013-10-21 05:10:00,
2013-10-21 01:16:00,43.1,36.4,29.98,SE,130,4.0,6.0,77,0.00,,,0.00,Wunderground v.1.15,2013-10-21 05:16:00,
2013-10-21 01:21:00,42.8,36.1,29.98,SE,130,5.0,5.0,77,0.00,,,0.00,Wunderground v.1.15,2013-10-21 05:21:00,
2013-10-21 01:27:00,42.9,36.2,29.98,SE,132,5.0,7.0,77,0.00,,,0.00,Wunderground v.1.15,2013-10-21 05:27:00,
2013-10-21 01:32:00,42.8,36.1,29.99,SE,127,4.0,5.0,77,0.00,,,0.00,Wunderground v.1.15,2013-10-21 05:32:00,
2013-10-21 01:38:00,42.5,36.1,29.99,SE,130,4.0,5.0,78,0.00,,,0.00,Wunderground v.1.15,2013-10-21 05:38:00,
2013-10-21 01:44:00,42.5,36.4,29.99,SE,128,5.0,5.0,79,0.00,,,0.00,Wunderground v.1.15,2013-10-21 05:44:00,
2013-10-21 01:49:00,42.5,36.4,29.99,ESE,118,3.0,7.0,79,0.00,,,0.00,Wunderground v.1.15,2013-10-21 05:49:00,
2013-10-21 01:55:00,42.3,36.3,29.99,ESE,114,4.0,8.0,79,0.00,,,0.00,Wunderground v.1.15,2013-10-21 05:55:00,
2013-10-21 02:00:00,42.3,36.3,29.99,SE,127,5.0,5.0,79,0.00,,,0.00,Wunderground v.1.15,2013-10-21 06:00:00,
2013-10-21 02:05:00,42.3,36.3,29.99,SE,127,3.0,5.0,79,0.00,,,0.00,Wunderground v.1.15,2013-10-21 06:05:00,
2013-10-21 02:10:00,42.3,36.3,29.99,SE,134,5.0,6.0,79,0.00,,,0.00,Wunderground v.1.15,2013-10-21 06:10:00,
2013-10-21 02:15:00,42.3,36.3,30.00,SE,129,5.0,9.0,79,0.00,,,0.00,Wunderground v.1.15,2013-10-21 06:15:00,
2013-10-21 02:20:00,42.2,36.2,30.00,SE,132,6.0,6.0,79,0.00,,,0.00,Wunderground v.1.15,2013-10-21 06:20:00,
2013-10-21 02:25:00,42.2,36.5,30.00,SE,132,5.0,7.0,80,0.00,,,0.00,Wunderground v.1.15,2013-10-21 06:25:00,
2013-10-21 02:30:00,42.1,36.4,30.00,SE,133,4.0,4.0,80,0.00,,,0.00,Wunderground v.1.15,2013-10-21 06:30:00,
2013-10-21 02:35:00,42.1,36.4,30.00,SE,134,5.0,7.0,80,0.00,,,0.00,Wunderground v.1.15,2013-10-21 06:35:00,
2013-10-21 02:41:00,42.3,36.6,30.00,ESE,120,5.0,7.0,80,0.00,,,0.00,Wunderground v.1.15,2013-10-21 06:41:00,
2013-10-21 02:46:00,42.6,36.5,30.00,ESE,114,4.0,8.0,79,0.00,,,0.00,Wunderground v.1.15,2013-10-21 06:46:00,
2013-10-21 02:51:00,42.6,36.5,30.00,ESE,111,3.0,5.0,79,0.00,,,0.00,Wunderground v.1.15,2013-10-21 06:51:00,
2013-10-21 02:56:00,42.6,36.5,30.00,ESE,116,2.0,6.0,79,0.00,,,0.00,Wunderground v.1.15,2013-10-21 06:56:00,
2013-10-21 03:01:00,42.6,36.5,30.00,ESE,117,3.0,5.0,79,0.00,,,0.00,Wunderground v.1.15,2013-10-21 07:01:00,
2013-10-21 03:06:00,42.8,36.7,30.00,ESE,123,3.0,7.0,79,0.00,,,0.00,Wunderground v.1.15,2013-10-21 07:06:00,
2013-10-21 03:11:00,42.6,36.5,30.00,ESE,123,4.0,4.0,79,0.00,,,0.00,Wunderground v.1.15,2013-10-21 07:11:00,
2013-10-21 03:16:00,42.6,36.5,30.01,SE,126,5.0,7.0,79,0.00,,,0.00,Wunderground v.1.15,2013-10-21 07:16:00,
2013-10-21 03:21:00,42.8,36.7,30.01,SE,127,2.0,4.0,79,0.00,,,0.00,Wunderground v.1.15,2013-10-21 07:21:00,
2013-10-21 03:26:00,42.8,36.7,30.01,SE,126,4.0,5.0,79,0.00,,,0.00,Wunderground v.1.15,2013-10-21 07:26:00,
2013-10-21 03:31:00,43.1,37.0,30.00,ESE,107,3.0,7.0,79,0.00,,,0.00,Wunderground v.1.15,2013-10-21 07:31:00,
2013-10-21 03:37:00,43.2,37.1,30.00,ESE,103,5.0,7.0,79,0.00,,,0.00,Wunderground v.1.15,2013-10-21 07:37:00,
2013-10-21 03:42:00,43.5,37.4,30.00,SE,127,6.0,9.0,79,0.00,,,0.00,Wunderground v.1.15,2013-10-21 07:42:00,
2013-10-21 03:47:00,43.5,37.1,30.01,SE,134,6.0,9.0,78,0.00,,,0.00,Wunderground v.1.15,2013-10-21 07:47:00,
2013-10-21 03:52:00,43.3,37.2,30.01,ESE,117,5.0,9.0,79,0.00,,,0.00,Wunderground v.1.15,2013-10-21 07:52:00,
2013-10-21 03:56:00,43.5,37.4,30.01,ESE,121,3.0,9.0,79,0.00,,,0.00,Wunderground v.1.15,2013-10-21 07:56:00,
2013-10-21 04:01:00,43.6,37.5,30.01,SE,125,3.0,5.0,79,0.00,,,0.00,Wunderground v.1.15,2013-10-21 08:01:00,
2013-10-21 04:06:00,43.6,37.5,30.01,ESE,121,5.0,7.0,79,0.00,,,0.00,Wunderground v.1.15,2013-10-21 08:06:00,
2013-10-21 04:11:00,43.5,37.4,30.01,ESE,123,3.0,7.0,79,0.00,,,0.00,Wunderground v.1.15,2013-10-21 08:11:00,
2013-10-21 04:17:00,43.5,37.4,30.01,ESE,123,2.0,7.0,79,0.00,,,0.00,Wunderground v.1.15,2013-10-21 08:17:00,
2013-10-21 04:22:00,43.3,37.2,30.01,SE,124,3.0,4.0,79,0.00,,,0.00,Wunderground v.1.15,2013-10-21 08:22:00,
2013-10-21 04:26:00,43.2,37.4,30.01,SE,124,1.0,5.0,80,0.00,,,0.00,Wunderground v.1.15,2013-10-21 08:26:00,
2013-10-21 04:32:00,43.2,37.4,30.01,SE,124,3.0,4.0,80,0.00,,,0.00,Wunderground v.1.15,2013-10-21 08:32:00,
2013-10-21 04:37:00,43.3,37.5,30.01,SE,124,5.0,6.0,80,0.00,,,0.00,Wunderground v.1.15,2013-10-21 08:37:00,
2013-10-21 04:42:00,43.3,37.5,30.01,SE,125,3.0,6.0,80,0.00,,,0.00,Wunderground v.1.15,2013-10-21 08:42:00,
2013-10-21 04:47:00,43.2,37.4,30.02,SE,130,5.0,7.0,80,0.00,,,0.00,Wunderground v.1.15,2013-10-21 08:47:00,
2013-10-21 04:52:00,43.1,37.3,30.02,SE,130,3.0,6.0,80,0.00,,,0.00,Wunderground v.1.15,2013-10-21 08:52:00,
2013-10-21 04:57:00,43.1,37.3,30.02,SE,131,2.0,6.0,80,0.00,,,0.00,Wunderground v.1.15,2013-10-21 08:57:00,
2013-10-21 05:02:00,43.1,37.3,30.02,SE,128,3.0,6.0,80,0.00,,,0.00,Wunderground v.1.15,2013-10-21 09:02:00,
2013-10-21 05:07:00,43.2,37.4,30.02,SE,127,2.0,7.0,80,0.00,,,0.00,Wunderground v.1.15,2013-10-21 09:07:00,
2013-10-21 05:12:00,43.2,37.4,30.02,SE,127,2.0,4.0,80,0.00,,,0.00,Wunderground v.1.15,2013-10-21 09:12:00,
2013-10-21 05:17:00,43.1,37.3,30.02,SE,127,2.0,4.0,80,0.00,,,0.00,Wunderground v.1.15,2013-10-21 09:17:00,
2013-10-21 05:22:00,42.9,37.2,30.02,SE,127,0.0,2.0,80,0.00,,,0.00,Wunderground v.1.15,2013-10-21 09:22:00,
2013-10-21 05:27:00,42.6,36.9,30.02,SE,127,0.0,2.0,80,0.00,,,0.00,Wunderground v.1.15,2013-10-21 09:27:00,
2013-10-21 05:32:00,42.6,37.2,30.02,SE,129,5.0,7.0,81,0.00,,,0.00,Wunderground v.1.15,2013-10-21 09:32:00,
2013-10-21 05:37:00,42.9,37.2,30.02,SE,134,5.0,9.0,80,0.00,,,0.00,Wunderground v.1.15,2013-10-21 09:37:00,
2013-10-21 05:42:00,42.9,37.2,30.02,SE,142,7.0,9.0,80,0.00,,,0.00,Wunderground v.1.15,2013-10-21 09:42:00,
2013-10-21 05:47:00,42.9,37.2,30.02,SE,138,4.0,10.0,80,0.00,,,0.00,Wunderground v.1.15,2013-10-21 09:47:00,
2013-10-21 05:52:00,42.8,37.1,30.02,SE,133,3.0,5.0,80,0.00,,,0.00,Wunderground v.1.15,2013-10-21 09:52:00,
2013-10-21 05:57:00,42.5,37.1,30.02,SE,134,2.0,6.0,81,0.00,,,0.00,Wunderground v.1.15,2013-10-21 09:57:00,
2013-10-21 06:02:00,42.3,36.9,30.02,SE,136,5.0,6.0,81,0.00,,,0.00,Wunderground v.1.15,2013-10-21 10:02:00,
2013-10-21 06:07:00,42.3,36.9,30.02,SE,136,6.0,6.0,81,0.00,,,0.00,Wunderground v.1.15,2013-10-21 10:07:00,
2013-10-21 06:12:00,42.1,36.7,30.02,SE,134,7.0,7.0,81,0.00,,,0.00,Wunderground v.1.15,2013-10-21 10:12:00,
2013-10-21 06:17:00,41.9,36.8,30.02,SE,134,6.0,7.0,82,0.00,,,0.00,Wunderground v.1.15,2013-10-21 10:17:00,
2013-10-21 06:22:00,41.8,36.7,30.02,SE,134,4.0,6.0,82,0.00,,,0.00,Wunderground v.1.15,2013-10-21 10:22:00,
2013-10-21 06:27:00,41.6,36.5,30.02,SE,131,4.0,7.0,82,0.00,,,0.00,Wunderground v.1.15,2013-10-21 10:27:00,
2013-10-21 06:32:00,41.5,36.4,30.02,SE,132,3.0,6.0,82,0.00,,,0.00,Wunderground v.1.15,2013-10-21 10:32:00,
2013-10-21 06:37:00,41.3,36.5,30.02,SE,133,3.0,6.0,83,0.00,,,0.00,Wunderground v.1.15,2013-10-21 10:37:00,
2013-10-21 06:42:00,41.2,36.4,30.02,SE,133,5.0,5.0,83,0.00,,,0.00,Wunderground v.1.15,2013-10-21 10:42:00,
2013-10-21 06:47:00,41.1,36.6,30.02,SE,133,4.0,6.0,84,0.00,,,0.00,Wunderground v.1.15,2013-10-21 10:47:00,
2013-10-21 06:52:00,41.2,36.7,30.02,SE,134,5.0,7.0,84,0.00,,,0.00,Wunderground v.1.15,2013-10-21 10:52:00,
2013-10-21 06:57:00,41.1,36.6,30.02,SE,134,3.0,7.0,84,0.00,,,0.00,Wunderground v.1.15,2013-10-21 10:57:00,
2013-10-21 07:02:00,40.8,36.3,30.03,SE,135,2.0,6.0,84,0.00,,,0.00,Wunderground v.1.15,2013-10-21 11:02:00,
2013-10-21 07:08:00,40.6,36.4,30.03,SE,136,3.0,6.0,85,0.00,,,0.00,Wunderground v.1.15,2013-10-21 11:08:00,
2013-10-21 07:13:00,40.5,36.3,30.03,SE,136,4.0,7.0,85,0.00,,,0.00,Wunderground v.1.15,2013-10-21 11:13:00,
2013-10-21 07:18:00,40.5,36.3,30.03,SE,136,4.0,7.0,85,0.00,,,0.00,Wunderground v.1.15,2013-10-21 11:18:00,
2013-10-21 07:23:00,40.3,36.1,30.03,SE,136,1.0,4.0,85,0.00,,,0.00,Wunderground v.1.15,2013-10-21 11:23:00,
2013-10-21 07:28:00,40.5,36.3,30.03,SE,137,3.0,4.0,85,0.00,,,0.00,Wunderground v.1.15,2013-10-21 11:28:00,
2013-10-21 07:33:00,40.5,36.3,30.04,SE,138,2.0,5.0,85,0.00,,,0.00,Wunderground v.1.15,2013-10-21 11:33:00,
2013-10-21 07:38:00,40.5,36.3,30.04,SE,138,4.0,5.0,85,0.00,,,0.00,Wunderground v.1.15,2013-10-21 11:38:00,
2013-10-21 07:43:00,40.6,36.7,30.04,SE,138,4.0,6.0,86,0.00,,,0.00,Wunderground v.1.15,2013-10-21 11:43:00,
2013-10-21 07:48:00,41.2,37.0,30.04,SE,138,5.0,6.0,85,0.00,,,0.00,Wunderground v.1.15,2013-10-21 11:48:00,
2013-10-21 07:53:00,41.6,37.4,30.04,SE,138,4.0,10.0,85,0.00,,,0.00,Wunderground v.1.15,2013-10-21 11:53:00,
2013-10-21 07:58:00,41.9,37.4,30.04,SE,144,5.0,10.0,84,0.00,,,0.00,Wunderground v.1.15,2013-10-21 11:58:00,
2013-10-21 08:03:00,42.1,37.3,30.04,SE,140,7.0,10.0,83,0.00,,,0.00,Wunderground v.1.15,2013-10-21 12:03:00,
2013-10-21 08:08:00,42.3,37.5,30.04,SE,146,4.0,10.0,83,0.00,,,0.00,Wunderground v.1.15,2013-10-21 12:08:00,
2013-10-21 08:13:00,42.9,37.8,30.04,SE,142,5.0,9.0,82,0.00,,,0.00,Wunderground v.1.15,2013-10-21 12:13:00,
2013-10-21 08:18:00,43.2,37.8,30.04,SE,140,8.0,9.0,81,0.00,,,0.00,Wunderground v.1.15,2013-10-21 12:18:00,
2013-10-21 08:23:00,43.5,38.1,30.04,SE,136,6.0,8.0,81,0.00,,,0.00,Wunderground v.1.15,2013-10-21 12:23:00,
2013-10-21 08:28:00,43.6,37.8,30.04,SE,140,10.0,11.0,80,0.00,,,0.00,Wunderground v.1.15,2013-10-21 12:28:00,
2013-10-21 08:33:00,43.6,37.8,30.04,SSE,147,3.0,9.0,80,0.00,,,0.00,Wunderground v.1.15,2013-10-21 12:33:00,
2013-10-21 08:38:00,43.8,38.0,30.04,SE,136,6.0,11.0,80,0.00,,,0.00,Wunderground v.1.15,2013-10-21 12:38:00,
2013-10-21 08:43:00,43.9,38.1,30.04,SE,136,6.0,9.0,80,0.00,,,0.00,Wunderground v.1.15,2013-10-21 12:43:00,
2013-10-21 08:48:00,43.9,38.1,30.04,ESE,111,3.0,10.0,80,0.00,,,0.00,Wunderground v.1.15,2013-10-21 12:48:00,
2013-10-21 08:53:00,44.2,38.4,30.04,SE,134,6.0,10.0,80,0.00,,,0.00,Wunderground v.1.15,2013-10-21 12:53:00,
2013-10-21 08:58:00,44.5,38.7,30.05,SE,146,6.0,11.0,80,0.00,,,0.00,Wunderground v.1.15,2013-10-21 12:58:00,
2013-10-21 09:03:00,44.8,39.0,30.05,SE,133,7.0,7.0,80,0.00,,,0.00,Wunderground v.1.15,2013-10-21 13:03:00,
2013-10-21 09:08:00,45.2,39.1,30.05,SE,146,8.0,11.0,79,0.00,,,0.00,Wunderground v.1.15,2013-10-21 13:08:00,
2013-10-21 09:13:00,45.8,39.7,30.06,SE,136,5.0,10.0,79,0.00,,,0.00,Wunderground v.1.15,2013-10-21 13:13:00,
2013-10-21 09:18:00,46.7,40.2,30.06,SSE,153,8.0,10.0,78,0.00,,,0.00,Wunderground v.1.15,2013-10-21 13:18:00,
2013-10-21 09:24:00,48.0,40.5,30.06,SSE,148,5.0,10.0,75,0.00,,,0.00,Wunderground v.1.15,2013-10-21 13:24:00,
2013-10-21 09:29:00,48.5,40.2,30.05,SSE,162,5.0,11.0,73,0.00,,,0.00,Wunderground v.1.15,2013-10-21 13:29:00,
2013-10-21 09:34:00,48.6,40.0,30.05,SSE,161,6.0,9.0,72,0.00,,,0.00,Wunderground v.1.15,2013-10-21 13:34:00,
2013-10-21 09:39:00,48.8,40.5,30.05,SE,139,6.0,9.0,73,0.00,,,0.00,Wunderground v.1.15,2013-10-21 13:39:00,
2013-10-21 09:44:00,49.1,40.5,30.04,SSE,164,6.0,9.0,72,0.00,,,0.00,Wunderground v.1.15,2013-10-21 13:44:00,
2013-10-21 09:49:00,49.4,40.7,30.04,SSE,148,12.0,14.0,72,0.00,,,0.00,Wunderground v.1.15,2013-10-21 13:49:00,
2013-10-21 09:54:00,49.4,40.4,30.04,SSE,157,7.0,13.0,71,0.00,,,0.00,Wunderground v.1.15,2013-10-21 13:54:00,
2013-10-21 09:59:00,49.5,40.8,30.04,South,176,6.0,15.0,72,0.00,,,0.00,Wunderground v.1.15,2013-10-21 13:59:00,
2013-10-21 10:04:00,50.2,41.5,30.04,SE,146,2.0,12.0,72,0.00,,,0.00,Wunderground v.1.15,2013-10-21 14:04:00,
2013-10-21 10:10:00,50.8,41.0,30.04,SSE,148,3.0,6.0,69,0.00,,,0.00,Wunderground v.1.15,2013-10-21 14:10:00,
2013-10-21 10:15:00,51.0,40.4,30.03,SSE,151,15.0,15.0,67,0.00,,,0.00,Wunderground v.1.15,2013-10-21 14:15:00,
2013-10-21 10:20:00,50.8,40.6,30.03,South,172,2.0,8.0,68,0.00,,,0.00,Wunderground v.1.15,2013-10-21 14:20:00,
2013-10-21 10:25:00,51.0,40.8,30.03,SE,145,6.0,13.0,68,0.00,,,0.00,Wunderground v.1.15,2013-10-21 14:25:00,
2013-10-21 10:30:00,51.3,41.5,30.03,SE,146,3.0,6.0,69,0.00,,,0.00,Wunderground v.1.15,2013-10-21 14:30:00,
2013-10-21 10:35:00,51.7,41.1,30.03,SSE,153,10.0,11.0,67,0.00,,,0.00,Wunderground v.1.15,2013-10-21 14:35:00,
2013-10-21 10:40:00,51.9,40.9,30.03,SSE,168,9.0,9.0,66,0.00,,,0.00,Wunderground v.1.15,2013-10-21 14:40:00,
2013-10-21 10:45:00,52.0,41.0,30.02,SSE,164,5.0,13.0,66,0.00,,,0.00,Wunderground v.1.15,2013-10-21 14:45:00,
2013-10-21 10:50:00,52.2,40.8,30.02,SSE,165,4.0,7.0,65,0.00,,,0.00,Wunderground v.1.15,2013-10-21 14:50:00,
2013-10-21 10:55:00,52.3,41.3,30.02,SE,146,9.0,13.0,66,0.00,,,0.00,Wunderground v.1.15,2013-10-21 14:55:00,
2013-10-21 11:00:00,52.6,41.2,30.02,SSE,147,6.0,7.0,65,0.00,,,0.00,Wunderground v.1.15,2013-10-21 15:00:00,
2013-10-21 11:05:00,52.6,40.8,30.02,SE,142,6.0,12.0,64,0.00,,,0.00,Wunderground v.1.15,2013-10-21 15:05:00,
2013-10-21 11:10:00,53.2,41.3,30.02,SSE,158,4.0,8.0,64,0.00,,,0.00,Wunderground v.1.15,2013-10-21 15:10:00,
2013-10-21 11:15:00,53.5,41.6,30.01,South,171,9.0,12.0,64,0.00,,,0.00,Wunderground v.1.15,2013-10-21 15:15:00,
2013-10-21 11:20:00,53.8,41.1,30.01,SSE,161,7.0,8.0,62,0.00,,,0.00,Wunderground v.1.15,2013-10-21 15:20:00,
2013-10-21 11:25:00,53.9,41.6,30.01,SSE,162,5.0,12.0,63,0.00,,,0.00,Wunderground v.1.15,2013-10-21 15:25:00,
2013-10-21 11:30:00,53.9,41.6,30.01,SSE,168,4.0,6.0,63,0.00,,,0.00,Wunderground v.1.15,2013-10-21 15:30:00,
2013-10-21 11:35:00,54.7,42.3,30.01,SSE,160,5.0,6.0,63,0.00,,,0.00,Wunderground v.1.15,2013-10-21 15:35:00,
2013-10-21 11:40:00,54.5,41.3,30.01,South,184,5.0,9.0,61,0.00,,,0.00,Wunderground v.1.15,2013-10-21 15:40:00,
2013-10-21 11:45:00,55.3,42.9,30.00,South,176,3.0,9.0,63,0.00,,,0.00,Wunderground v.1.15,2013-10-21 15:45:00,
2013-10-21 11:50:00,54.7,41.5,30.00,SSE,155,8.0,11.0,61,0.00,,,0.00,Wunderground v.1.15,2013-10-21 15:50:00,
2013-10-21 11:55:00,55.0,42.6,30.00,SSE,162,1.0,12.0,63,0.00,,,0.00,Wunderground v.1.15,2013-10-21 15:55:00,
2013-10-21 12:00:00,55.9,42.6,29.99,South,180,5.0,6.0,61,0.00,,,0.00,Wunderground v.1.15,2013-10-21 16:00:00,
2013-10-21 12:05:00,56.2,41.6,29.99,SE,142,11.0,15.0,58,0.00,,,0.00,Wunderground v.1.15,2013-10-21 16:05:00,
2013-10-21 12:10:00,56.2,41.6,29.99,SSW,194,9.0,10.0,58,0.00,,,0.00,Wunderground v.1.15,2013-10-21 16:10:00,
2013-10-21 12:15:00,56.5,41.9,29.99,South,182,9.0,14.0,58,0.00,,,0.00,Wunderground v.1.15,2013-10-21 16:15:00,
2013-10-21 12:20:00,56.9,42.3,29.99,SSE,163,9.0,14.0,58,0.00,,,0.00,Wunderground v.1.15,2013-10-21 16:20:00,
2013-10-21 12:25:00,57.6,42.5,29.99,South,185,10.0,16.0,57,0.00,,,0.00,Wunderground v.1.15,2013-10-21 16:25:00,
2013-10-21 12:30:00,57.8,42.2,29.98,South,169,16.0,20.0,56,0.00,,,0.00,Wunderground v.1.15,2013-10-21 16:30:00,
2013-10-21 12:35:00,58.3,42.7,29.98,SSE,167,6.0,20.0,56,0.00,,,0.00,Wunderground v.1.15,2013-10-21 16:35:00,
2013-10-21 12:40:00,58.1,43.4,29.98,South,186,14.0,14.0,58,0.00,,,0.00,Wunderground v.1.15,2013-10-21 16:40:00,
2013-10-21 12:45:00,58.1,42.5,29.97,South,169,5.0,17.0,56,0.00,,,0.00,Wunderground v.1.15,2013-10-21 16:45:00,
2013-10-21 12:50:00,58.0,41.9,29.97,SSE,148,17.0,19.0,55,0.00,,,0.00,Wunderground v.1.15,2013-10-21 16:50:00,
2013-10-21 12:55:00,58.0,42.4,29.97,South,175,10.0,21.0,56,0.00,,,0.00,Wunderground v.1.15,2013-10-21 16:55:00,
2013-10-21 13:01:00,58.3,42.7,29.96,SSW,192,14.0,14.0,56,0.00,,,0.00,Wunderground v.1.15,2013-10-21 17:01:00,
2013-10-21 13:06:00,58.6,42.5,29.96,South,191,10.0,19.0,55,0.00,,,0.00,Wunderground v.1.15,2013-10-21 17:06:00,
2013-10-21 13:11:00,58.7,42.1,29.96,South,176,9.0,16.0,54,0.00,,,0.00,Wunderground v.1.15,2013-10-21 17:11:00,
2013-10-21 13:16:00,59.0,43.3,29.95,South,176,9.0,17.0,56,0.00,,,0.00,Wunderground v.1.15,2013-10-21 17:16:00,
2013-10-21 13:21:00,59.5,42.3,29.95,SSE,150,16.0,16.0,53,0.00,,,0.00,Wunderground v.1.15,2013-10-21 17:21:00,
2013-10-21 13:26:00,59.5,42.3,29.95,SSE,151,11.0,22.0,53,0.00,,,0.00,Wunderground v.1.15,2013-10-21 17:26:00,
2013-10-21 13:31:00,59.5,42.3,29.95,SSE,159,11.0,13.0,53,0.00,,,0.00,Wunderground v.1.15,2013-10-21 17:31:00,
2013-10-21 13:36:00,59.9,42.7,29.95,South,177,12.0,15.0,53,0.00,,,0.00,Wunderground v.1.15,2013-10-21 17:36:00,
2013-10-21 13:41:00,60.1,43.9,29.95,SSE,163,6.0,12.0,55,0.00,,,0.00,Wunderground v.1.15,2013-10-21 17:41:00,
2013-10-21 13:46:00,59.8,42.6,29.94,SE,140,12.0,17.0,53,0.00,,,0.00,Wunderground v.1.15,2013-10-21 17:46:00,
2013-10-21 13:51:00,59.5,42.3,29.94,SSE,163,5.0,13.0,53,0.00,,,0.00,Wunderground v.1.15,2013-10-21 17:51:00,
2013-10-21 13:56:00,59.3,42.2,29.94,SSE,159,14.0,17.0,53,0.00,,,0.00,Wunderground v.1.15,2013-10-21 17:56:00,
2013-10-21 14:01:00,59.3,42.6,29.94,SSE,161,6.0,11.0,54,0.00,,,0.00,Wunderground v.1.15,2013-10-21 18:01:00,
2013-10-21 14:06:00,59.2,42.1,29.94,SSE,162,3.0,15.0,53,0.00,,,0.00,Wunderground v.1.15,2013-10-21 18:06:00,
2013-10-21 14:11:00,59.3,43.1,29.94,SSE,165,7.0,11.0,55,0.00,,,0.00,Wunderground v.1.15,2013-10-21 18:11:00,
2013-10-21 14:16:00,59.2,42.6,29.93,SSE,153,9.0,14.0,54,0.00,,,0.00,Wunderground v.1.15,2013-10-21 18:16:00,
2013-10-21 14:21:00,59.3,42.6,29.93,SE,143,14.0,15.0,54,0.00,,,0.00,Wunderground v.1.15,2013-10-21 18:21:00,
2013-10-21 14:26:00,59.5,42.8,29.93,SSE,153,7.0,16.0,54,0.00,,,0.00,Wunderground v.1.15,2013-10-21 18:26:00,
2013-10-21 14:31:00,59.8,42.6,29.93,SSE,159,9.0,13.0,53,0.00,,,0.00,Wunderground v.1.15,2013-10-21 18:31:00,
2013-10-21 14:36:00,60.2,43.0,29.93,SSE,166,10.0,15.0,53,0.00,,,0.00,Wunderground v.1.15,2013-10-21 18:36:00,
2013-10-21 14:41:00,60.5,43.3,29.93,SSE,153,6.0,11.0,53,0.00,,,0.00,Wunderground v.1.15,2013-10-21 18:41:00,
2013-10-21 14:46:00,60.5,43.3,29.92,SSE,147,6.0,17.0,53,0.00,,,0.00,Wunderground v.1.15,2013-10-21 18:46:00,
2013-10-21 14:51:00,60.9,43.6,29.92,SSE,160,6.0,12.0,53,0.00,,,0.00,Wunderground v.1.15,2013-10-21 18:51:00,
2013-10-21 14:56:00,61.3,43.5,29.92,South,184,12.0,15.0,52,0.00,,,0.00,Wunderground v.1.15,2013-10-21 18:56:00,
2013-10-21 15:01:00,61.3,43.0,29.92,SSE,161,9.0,15.0,51,0.00,,,0.00,Wunderground v.1.15,2013-10-21 19:01:00,
2013-10-21 15:06:00,61.5,42.7,29.92,South,175,6.0,17.0,50,0.00,,,0.00,Wunderground v.1.15,2013-10-21 19:06:00,
2013-10-21 15:11:00,61.5,43.2,29.92,South,180,10.0,15.0,51,0.00,,,0.00,Wunderground v.1.15,2013-10-21 19:11:00,
2013-10-21 15:16:00,61.6,42.8,29.92,SSE,161,9.0,15.0,50,0.00,,,0.00,Wunderground v.1.15,2013-10-21 19:16:00,
2013-10-21 15:22:00,61.8,42.4,29.92,SSE,150,7.0,18.0,49,0.00,,,0.00,Wunderground v.1.15,2013-10-21 19:22:00,
2013-10-21 15:27:00,62.0,42.6,29.92,South,187,13.0,19.0,49,0.00,,,0.00,Wunderground v.1.15,2013-10-21 19:27:00,
2013-10-21 15:32:00,61.8,42.4,29.91,South,178,18.0,18.0,49,0.00,,,0.00,Wunderground v.1.15,2013-10-21 19:32:00,
2013-10-21 15:37:00,61.8,41.9,29.91,SSE,167,10.0,18.0,48,0.00,,,0.00,Wunderground v.1.15,2013-10-21 19:37:00,
2013-10-21 15:42:00,62.0,42.1,29.91,SSE,164,11.0,16.0,48,0.00,,,0.00,Wunderground v.1.15,2013-10-21 19:42:00,
2013-10-21 15:47:00,62.1,42.2,29.90,South,179,9.0,16.0,48,0.00,,,0.00,Wunderground v.1.15,2013-10-21 19:47:00,
2013-10-21 15:52:00,62.0,41.5,29.90,SSE,161,7.0,17.0,47,0.00,,,0.00,Wunderground v.1.15,2013-10-21 19:52:00,
2013-10-21 15:57:00,62.0,41.5,29.90,South,173,9.0,17.0,47,0.00,,,0.00,Wunderground v.1.15,2013-10-21 19:57:00,
2013-10-21 16:02:00,62.0,41.5,29.90,South,171,11.0,18.0,47,0.00,,,0.00,Wunderground v.1.15,2013-10-21 20:02:00,
2013-10-21 16:07:00,62.0,41.5,29.90,South,187,12.0,18.0,47,0.00,,,0.00,Wunderground v.1.15,2013-10-21 20:07:00,
2013-10-21 16:12:00,62.0,42.1,29.90,SSE,156,10.0,15.0,48,0.00,,,0.00,Wunderground v.1.15,2013-10-21 20:12:00,
2013-10-21 16:17:00,62.1,41.1,29.90,SSE,163,12.0,15.0,46,0.00,,,0.00,Wunderground v.1.15,2013-10-21 20:17:00,
2013-10-21 16:22:00,62.4,40.8,29.90,SE,135,12.0,18.0,45,0.00,,,0.00,Wunderground v.1.15,2013-10-21 20:22:00,
2013-10-21 16:27:00,62.4,41.3,29.90,SSE,162,7.0,18.0,46,0.00,,,0.00,Wunderground v.1.15,2013-10-21 20:27:00,
2013-10-21 16:32:00,62.3,41.2,29.90,South,181,12.0,14.0,46,0.00,,,0.00,Wunderground v.1.15,2013-10-21 20:32:00,
2013-10-21 16:37:00,62.3,40.7,29.90,SSW,192,7.0,18.0,45,0.00,,,0.00,Wunderground v.1.15,2013-10-21 20:37:00,
2013-10-21 16:42:00,62.3,41.2,29.90,South,180,6.0,17.0,46,0.00,,,0.00,Wunderground v.1.15,2013-10-21 20:42:00,
2013-10-21 16:47:00,62.3,40.7,29.90,South,184,11.0,18.0,45,0.00,,,0.00,Wunderground v.1.15,2013-10-21 20:47:00,
2013-10-21 16:52:00,62.3,41.2,29.90,South,181,18.0,18.0,46,0.00,,,0.00,Wunderground v.1.15,2013-10-21 20:52:00,
2013-10-21 16:57:00,62.3,40.7,29.90,SSE,156,15.0,21.0,45,0.00,,,0.00,Wunderground v.1.15,2013-10-21 20:57:00,
2013-10-21 17:02:00,62.1,41.6,29.90,South,190,10.0,15.0,47,0.00,,,0.00,Wunderground v.1.15,2013-10-21 21:02:00,
2013-10-21 17:07:00,62.1,41.1,29.90,SSE,168,15.0,16.0,46,0.00,,,0.00,Wunderground v.1.15,2013-10-21 21:07:00,
2013-10-21 17:12:00,62.0,41.0,29.90,South,186,13.0,16.0,46,0.00,,,0.00,Wunderground v.1.15,2013-10-21 21:12:00,
2013-10-21 17:17:00,61.8,40.8,29.90,SSE,163,11.0,16.0,46,0.00,,,0.00,Wunderground v.1.15,2013-10-21 21:17:00,
2013-10-21 17:22:00,61.8,40.8,29.90,South,182,14.0,17.0,46,0.00,,,0.00,Wunderground v.1.15,2013-10-21 21:22:00,
2013-10-21 17:27:00,61.8,41.3,29.90,South,177,11.0,17.0,47,0.00,,,0.00,Wunderground v.1.15,2013-10-21 21:27:00,
2013-10-21 17:32:00,61.8,40.8,29.90,SSE,155,13.0,18.0,46,0.00,,,0.00,Wunderground v.1.15,2013-10-21 21:32:00,
2013-10-21 17:37:00,61.6,40.6,29.90,SE,146,14.0,18.0,46,0.00,,,0.00,Wunderground v.1.15,2013-10-21 21:37:00,
2013-10-21 17:42:00,61.5,41.1,29.90,South,171,7.0,14.0,47,0.00,,,0.00,Wunderground v.1.15,2013-10-21 21:42:00,
2013-10-21 17:47:00,61.3,40.9,29.90,SSE,168,11.0,16.0,47,0.00,,,0.00,Wunderground v.1.15,2013-10-21 21:47:00,
2013-10-21 17:52:00,61.2,40.8,29.90,SSE,167,9.0,11.0,47,0.00,,,0.00,Wunderground v.1.15,2013-10-21 21:52:00,
2013-10-21 17:57:00,61.2,40.8,29.90,SSE,168,11.0,16.0,47,0.00,,,0.00,Wunderground v.1.15,2013-10-21 21:57:00,
2013-10-21 18:02:00,61.0,40.6,29.90,South,170,6.0,12.0,47,0.00,,,0.00,Wunderground v.1.15,2013-10-21 22:02:00,
2013-10-21 18:07:00,61.0,40.6,29.90,SSE,156,5.0,13.0,47,0.00,,,0.00,Wunderground v.1.15,2013-10-21 22:07:00,
2013-10-21 18:12:00,60.7,40.9,29.90,SSE,154,11.0,11.0,48,0.00,,,0.00,Wunderground v.1.15,2013-10-21 22:12:00,
2013-10-21 18:17:00,60.2,41.0,29.91,SSE,155,7.0,12.0,49,0.00,,,0.00,Wunderground v.1.15,2013-10-21 22:17:00,
2013-10-21 18:22:00,59.9,41.2,29.91,SSE,157,5.0,9.0,50,0.00,,,0.00,Wunderground v.1.15,2013-10-21 22:22:00,
2013-10-21 18:27:00,59.5,41.3,29.91,SE,137,6.0,10.0,51,0.00,,,0.00,Wunderground v.1.15,2013-10-21 22:27:00,
2013-10-21 18:32:00,59.2,41.6,29.90,SE,137,3.0,6.0,52,0.00,,,0.00,Wunderground v.1.15,2013-10-21 22:32:00,
2013-10-21 18:37:00,58.7,41.6,29.90,SE,137,2.0,6.0,53,0.00,,,0.00,Wunderground v.1.15,2013-10-21 22:37:00,
2013-10-21 18:42:00,58.4,41.3,29.90,SE,137,4.0,6.0,53,0.00,,,0.00,Wunderground v.1.15,2013-10-21 22:42:00,
2013-10-21 18:47:00,58.3,41.2,29.90,SE,136,3.0,6.0,53,0.00,,,0.00,Wunderground v.1.15,2013-10-21 22:47:00,
2013-10-21 18:52:00,58.1,41.5,29.90,SE,136,3.0,5.0,54,0.00,,,0.00,Wunderground v.1.15,2013-10-21 22:52:00,
2013-10-21 18:58:00,58.0,41.4,29.90,SE,136,6.0,10.0,54,0.00,,,0.00,Wunderground v.1.15,2013-10-21 22:58:00,
2013-10-21 19:03:00,57.8,41.3,29.90,SE,133,5.0,9.0,54,0.00,,,0.00,Wunderground v.1.15,2013-10-21 23:03:00,
2013-10-21 19:08:00,58.0,41.4,29.90,SE,137,5.0,10.0,54,0.00,,,0.00,Wunderground v.1.15,2013-10-21 23:08:00,
2013-10-21 19:13:00,57.8,41.3,29.90,SE,136,3.0,7.0,54,0.00,,,0.00,Wunderground v.1.15,2013-10-21 23:13:00,
2013-10-21 19:18:00,57.6,41.1,29.90,SE,137,4.0,7.0,54,0.00,,,0.00,Wunderground v.1.15,2013-10-21 23:18:00,
2013-10-21 19:24:00,57.6,41.1,29.90,SE,138,5.0,6.0,54,0.00,,,0.00,Wunderground v.1.15,2013-10-21 23:24:00,
2013-10-21 19:29:00,57.5,41.0,29.90,SE,131,4.0,7.0,54,0.00,,,0.00,Wunderground v.1.15,2013-10-21 23:29:00,
2013-10-21 19:35:00,57.2,41.2,29.90,SE,132,4.0,5.0,55,0.00,,,0.00,Wunderground v.1.15,2013-10-21 23:35:00,
2013-10-21 19:40:00,57.2,41.2,29.90,SE,133,3.0,4.0,55,0.00,,,0.00,Wunderground v.1.15,2013-10-21 23:40:00,
2013-10-21 19:45:00,57.0,41.0,29.89,SSE,149,4.0,5.0,55,0.00,,,0.00,Wunderground v.1.15,2013-10-21 23:45:00,
2013-10-21 19:51:00,57.2,41.2,29.89,SSE,148,4.0,4.0,55,0.00,,,0.00,Wunderground v.1.15,2013-10-21 23:51:00,
2013-10-21 19:56:00,57.3,40.8,29.89,SE,145,4.0,9.0,54,0.00,,,0.00,Wunderground v.1.15,2013-10-21 23:56:00,
2013-10-21 20:01:00,57.6,40.6,29.89,SE,142,4.0,7.0,53,0.00,,,0.00,Wunderground v.1.15,2013-10-22 00:01:00,
2013-10-21 20:06:00,58.0,41.0,29.89,SSE,150,6.0,9.0,53,0.00,,,0.00,Wunderground v.1.15,2013-10-22 00:06:00,
2013-10-21 20:11:00,58.4,40.3,29.89,SSE,155,4.0,6.0,51,0.00,,,0.00,Wunderground v.1.15,2013-10-22 00:11:00,
2013-10-21 20:16:00,59.0,40.4,29.88,SSE,157,4.0,13.0,50,0.00,,,0.00,Wunderground v.1.15,2013-10-22 00:16:00,
2013-10-21 20:21:00,59.2,40.6,29.88,SSE,149,3.0,5.0,50,0.00,,,0.00,Wunderground v.1.15,2013-10-22 00:21:00,
2013-10-21 20:26:00,59.5,39.8,29.88,SSE,151,6.0,13.0,48,0.00,,,0.00,Wunderground v.1.15,2013-10-22 00:26:00,
2013-10-21 20:31:00,59.2,40.6,29.88,SE,142,7.0,7.0,50,0.00,,,0.00,Wunderground v.1.15,2013-10-22 00:31:00,
2013-10-21 20:36:00,58.7,40.1,29.88,SSE,153,8.0,8.0,50,0.00,,,0.00,Wunderground v.1.15,2013-10-22 00:36:00,
2013-10-21 20:41:00,58.9,40.3,29.88,SSE,152,4.0,8.0,50,0.00,,,0.00,Wunderground v.1.15,2013-10-22 00:41:00,
2013-10-21 20:46:00,59.3,40.1,29.88,SSE,163,6.0,14.0,49,0.00,,,0.00,Wunderground v.1.15,2013-10-22 00:46:00,
2013-10-21 20:51:00,59.8,40.1,29.88,South,175,9.0,13.0,48,0.00,,,0.00,Wunderground v.1.15,2013-10-22 00:51:00,
2013-10-21 20:56:00,59.9,40.1,29.88,SSE,163,5.0,13.0,48,0.00,,,0.00,Wunderground v.1.15,2013-10-22 00:56:00,
2013-10-21 21:01:00,59.8,40.1,29.88,SSE,150,14.0,14.0,48,0.00,,,0.00,Wunderground v.1.15,2013-10-22 01:01:00,
2013-10-21 21:06:00,60.1,40.3,29.88,South,172,7.0,15.0,48,0.00,,,0.00,Wunderground v.1.15,2013-10-22 01:06:00,
2013-10-21 21:11:00,59.9,40.1,29.88,SSE,162,5.0,10.0,48,0.00,,,0.00,Wunderground v.1.15,2013-10-22 01:11:00,
2013-10-21 21:16:00,59.9,39.6,29.88,SSE,163,6.0,16.0,47,0.00,,,0.00,Wunderground v.1.15,2013-10-22 01:16:00,
2013-10-21 21:21:00,60.1,39.8,29.88,SSE,158,10.0,14.0,47,0.00,,,0.00,Wunderground v.1.15,2013-10-22 01:21:00,
2013-10-21 21:26:00,59.9,39.6,29.88,SE,138,2.0,14.0,47,0.00,,,0.00,Wunderground v.1.15,2013-10-22 01:26:00,
2013-10-21 21:31:00,59.6,39.9,29.87,SSE,158,11.0,14.0,48,0.00,,,0.00,Wunderground v.1.15,2013-10-22 01:31:00,
2013-10-21 21:36:00,59.8,39.5,29.87,South,186,9.0,14.0,47,0.00,,,0.00,Wunderground v.1.15,2013-10-22 01:36:00,
2013-10-21 21:41:00,59.6,39.3,29.87,ESE,118,6.0,10.0,47,0.00,,,0.00,Wunderground v.1.15,2013-10-22 01:41:00,
2013-10-21 21:46:00,59.2,39.5,29.87,SE,144,5.0,13.0,48,0.00,,,0.00,Wunderground v.1.15,2013-10-22 01:46:00,
2013-10-21 21:51:00,59.2,39.5,29.87,South,180,3.0,9.0,48,0.00,,,0.00,Wunderground v.1.15,2013-10-22 01:51:00,
2013-10-21 21:54:00,59.2,39.5,29.87,South,181,9.0,16.0,48,0.00,,,0.00,Wunderground v.1.15,2013-10-22 01:54:00,
2013-10-21 21:59:00,59.0,39.3,29.87,SSE,157,7.0,16.0,48,0.00,,,0.00,Wunderground v.1.15,2013-10-22 01:59:00,
2013-10-21 22:04:00,58.7,40.1,29.87,SE,137,2.0,8.0,50,0.00,,,0.00,Wunderground v.1.15,2013-10-22 02:04:00,
2013-10-21 22:09:00,58.0,40.5,29.87,SE,137,3.0,8.0,52,0.00,,,0.00,Wunderground v.1.15,2013-10-22 02:09:00,
2013-10-21 22:14:00,57.6,39.6,29.87,SE,136,7.0,11.0,51,0.00,,,0.00,Wunderground v.1.15,2013-10-22 02:14:00,
2013-10-21 22:19:00,57.8,39.8,29.87,SE,134,9.0,15.0,51,0.00,,,0.00,Wunderground v.1.15,2013-10-22 02:19:00,
2013-10-21 22:24:00,57.8,40.3,29.87,SSE,163,9.0,10.0,52,0.00,,,0.00,Wunderground v.1.15,2013-10-22 02:24:00,
2013-10-21 22:29:00,58.1,40.1,29.86,South,173,6.0,13.0,51,0.00,,,0.00,Wunderground v.1.15,2013-10-22 02:29:00,
2013-10-21 22:34:00,58.1,40.1,29.86,SSE,155,3.0,13.0,51,0.00,,,0.00,Wunderground v.1.15,2013-10-22 02:34:00,
2013-10-21 22:39:00,58.0,40.0,29.86,SSE,160,6.0,13.0,51,0.00,,,0.00,Wunderground v.1.15,2013-10-22 02:39:00,
2013-10-21 22:44:00,58.0,39.5,29.85,SSE,161,3.0,13.0,50,0.00,,,0.00,Wunderground v.1.15,2013-10-22 02:44:00,
2013-10-21 22:49:00,58.0,39.5,29.85,SSE,148,16.0,16.0,50,0.00,,,0.00,Wunderground v.1.15,2013-10-22 02:49:00,
2013-10-21 22:54:00,58.0,39.5,29.85,SSE,154,9.0,16.0,50,0.00,,,0.00,Wunderground v.1.15,2013-10-22 02:54:00,
2013-10-21 22:59:00,57.8,39.3,29.85,SSE,161,10.0,16.0,50,0.00,,,0.00,Wunderground v.1.15,2013-10-22 02:59:00,
2013-10-21 23:04:00,58.0,40.0,29.85,SSE,160,10.0,18.0,51,0.00,,,0.00,Wunderground v.1.15,2013-10-22 03:04:00,
2013-10-21 23:09:00,58.0,39.5,29.85,South,173,6.0,18.0,50,0.00,,,0.00,Wunderground v.1.15,2013-10-22 03:09:00,
2013-10-21 23:14:00,57.8,39.3,29.84,SE,144,12.0,16.0,50,0.00,,,0.00,Wunderground v.1.15,2013-10-22 03:14:00,
2013-10-21 23:19:00,57.8,39.3,29.84,SSE,165,7.0,18.0,50,0.00,,,0.00,Wunderground v.1.15,2013-10-22 03:19:00,
2013-10-21 23:24:00,57.8,39.3,29.84,SSE,159,9.0,15.0,50,0.00,,,0.00,Wunderground v.1.15,2013-10-22 03:24:00,
2013-10-21 23:29:00,57.6,39.1,29.84,SSE,151,12.0,15.0,50,0.00,,,0.00,Wunderground v.1.15,2013-10-22 03:29:00,
2013-10-21 23:34:00,57.8,39.3,29.84,SSE,151,4.0,14.0,50,0.00,,,0.00,Wunderground v.1.15,2013-10-22 03:34:00,
2013-10-21 23:39:00,57.8,39.3,29.84,South,169,7.0,14.0,50,0.00,,,0.00,Wunderground v.1.15,2013-10-22 03:39:00,
2013-10-21 23:44:00,57.8,39.3,29.84,South,180,7.0,17.0,50,0.00,,,0.00,Wunderground v.1.15,2013-10-22 03:44:00,
2013-10-21 23:49:00,58.0,38.9,29.84,South,178,11.0,19.0,49,0.00,,,0.00,Wunderground v.1.15,2013-10-22 03:49:00,
2013-10-21 23:54:00,57.8,38.8,29.84,South,178,4.0,17.0,49,0.00,,,0.00,Wunderground v.1.15,2013-10-22 03:54:00,
2013-10-21 23:59:00,57.8,38.8,29.83,SSE,167,8.0,17.0,49,0.00,,,0.00,Wunderground v.1.15,2013-10-22 03:59:00,